Tracking 19570 objects as of 21-Feb-2019
HD Live streaming from Space Station
objects crossing your sky now

RADUGA 2

Track RADUGA 2 now!
RADUGA 2 is classified as:


NORAD ID: 9416
Int'l Code: 1976-092A
Perigee: 35,668.6 km
Apogee: 35,923.1 km
Inclination: 10.0 °
Period: 1,436.2 minutes
Semi major axis: 42166 km
RCS: 0.1428 m2 (medium)
Launch date: September 11, 1976
Source: Commonwealth of Independent States (former USSR) (CIS)
Launch site: TYURATAM MISSILE AND SPACE COMPLEX (TTMTR)
aabbcc
Your satellite tracking list
Your tracking list is empty




NASA's NSSDC Master Catalog

Two Line Element Set (TLE):
1  9416U 76092A   19051.73868900 -.00000212 +00000-0 +00000-0 0  9997
2  9416 009.9653 306.4761 0030169 325.5256 230.3491 01.00264269102531
Source of the keplerian elements: AFSPC